Regional Weather Roundup
Issued by NWS

Home | Current Version | Previous Version | Graphics & Text | Print | Product List | Glossary On
Versions: 1 2 3 4 5 6 7 8 9 10 11 12 13 14 15 16 17 18 19 20 21 22 23 24 25 26 27 28 29 30 31 32 33 34 35 36 37 38 39 40 41 42 43 44 45 46 47 48 49 50
000
ASUS43 KLMK 251602
RWRKY
KENTUCKY REGIONAL WEATHER ROUNDUP
NATIONAL WEATHER SERVICE LOUISVILLE KY
1100 AM EST SUN JAN 25 2015

NOTE "FAIR" INDICATES FEW OR NO CLOUDS BELOW 12,000 FEET
WITH NO SIGNIFICANT WEATHER AND/OR OBSTRUCTIONS TO VISIBILITY.

KYZ001>023-026-027-061>063-070>075-251700-
WESTERN AND SOUTH CENTRAL KENTUCKY

CITY           SKY/WX    TMP DP  RH WIND       PRES   REMARKS
PADUCAH        LGT RAIN  44  36  73 SW9       29.65F
HENDERSON      CLOUDY    41  36  81 S7        29.66S
OWENSBORO      LGT RAIN  41  37  85 S8        29.69S
HOPKINSVILLE   PTSUNNY   47  34  60 S10       29.68F
BOWLING GREEN  CLOUDY    46  34  62 S13G22    29.73F
GLASGOW        NOT AVBL
$$

KYZ024-025-028>034-038-045-046-053-251700-
NORTH CENTRAL KENTUCKY

CITY           SKY/WX    TMP DP  RH WIND       PRES   REMARKS
LOUISVILLE/SDF CLOUDY    43  32  65 S9        29.71S
LOUISVILLE/LOU CLOUDY    42  32  67 S8        29.71F
FORT KNOX      CLOUDY    41  33  73 S13       29.70R
$$

KYZ035>037-039>044-047>052-055>060-089>105-251700-
NORTHEAST KENTUCKY

CITY           SKY/WX    TMP DP  RH WIND       PRES   REMARKS
LEXINGTON      CLOUDY    38  31  76 S8        29.75R WCI  32
COVINGTON      CLOUDY    39  31  72 S6        29.73R WCI  35
FRANKFORT      CLOUDY    39  31  72 S7        29.72F WCI  34
$$

KYZ054-064>069-076>088-106>120-251700-
SOUTHEAST KENTUCKY

CITY           SKY/WX    TMP DP  RH WIND       PRES   REMARKS
JACKSON        CLOUDY    41  32  70 SW3       29.79S
LONDON         PTSUNNY   44  30  57 S5        29.79F
SOMERSET       NOT AVBL
MIDDLESBORO    NOT AVBL
MONTICELLO     PTSUNNY   45  34  65 SE12      29.80F
$$




USA.gov is the U.S. government's official web portal to all federal, state and local government web resources and services.